Location: Eckley Miners' Village
(40.9930°N, 75.8630°W)
Time: 11:56:19
(UTC-04:00)

Vanguard 1 Rocket - Pass Details

Date: 16 March 2026
Orbit: 654 x 4213 km, 34.3° (Epoch: 11 April)

Event Time Altitude Azimuth Distance (km) Brightness Sun altitude
Rises 12:33:19 0° 263° (W) 3,019 10.0 46.6°
Reaches altitude 10° 12:35:56 10° 245° (WSW) 2,235 9.6 46.7°
Maximum altitude 12:39:37 20° 197° (SSW) 1,905 10.1 46.8°
Drops below altitude 10° 12:44:30 10° 151° (SSE) 3,074 11.0 47.0°
Sets 12:48:56 0° 137° (SE) 4,610 11.5 47.1°
